| time (UTC) | temp F | wind direction | speed knots | gust knots | rain 1hr in | rain 24hr in | rain mn in | humidity % | barometer mb |
| 20260506113231 | 77 | 251 | 0.9 | 5.2 | 0.00 | 0.00 | 0.00 | 32 | 1012.8 |
| 20260506112733 | 76 | 319 | 1.7 | 5.2 | 0.00 | 0.00 | 0.00 | 31 | 1012.9 |
| 20260506112231 | 76 | 265 | 2.6 | 7.0 | 0.00 | 0.00 | 0.00 | 31 | 1012.9 |
| 20260506111743 | 76 | 264 | 1.7 | 7.0 | 0.00 | 0.00 | 0.00 | 31 | 1013.0 |
| 20260506111228 | 76 | 264 | 1.7 | 4.3 | 0.00 | 0.00 | 0.00 | 31 | 1013.0 |
| 20260506110229 | 76 | 322 | 1.7 | 6.1 | 0.00 | 0.00 | 0.00 | 31 | 1013.2 |
| 20260506105729 | 76 | 312 | 1.7 | 7.0 | 0.00 | 0.00 | 0.00 | 32 | 1013.2 |
| 20260506105228 | 76 | 287 | 2.6 | 7.0 | 0.00 | 0.00 | 0.00 | 31 | 1013.3 |
| 20260506104728 | 75 | 270 | 1.7 | 5.2 | 0.00 | 0.00 | 0.00 | 31 | 1013.3 |
| 20260506104229 | 76 | 329 | 0.9 | 6.1 | 0.00 | 0.00 | 0.00 | 31 | 1013.4 |
| 20260506103730 | 76 | 293 | 1.7 | 6.1 | 0.00 | 0.00 | 0.00 | 31 | 1013.4 |
| 20260506102726 | 75 | 225 | 1.7 | 6.1 | 0.00 | 0.00 | 0.00 | 31 | 1013.5 |
| 20260506102227 | 75 | 262 | 0.9 | 6.1 | 0.00 | 0.00 | 0.00 | 31 | 1013.5 |
| 20260506101725 | 75 | 293 | 1.7 | 4.3 | 0.00 | 0.00 | 0.00 | 31 | 1013.6 |
| 20260506101224 | 74 | 228 | 2.6 | 7.8 | 0.00 | 0.00 | 0.00 | 32 | 1013.6 |
| 20260506100724 | 74 | 293 | 1.7 | 7.8 | 0.00 | 0.00 | 0.00 | 32 | 1013.7 |
| 20260506100236 | 74 | 290 | 0.9 | 5.2 | 0.00 | 0.00 | 0.00 | 31 | 1013.7 |
| 20260506095725 | 75 | 291 | 0.9 | 5.2 | 0.00 | 0.00 | 0.00 | 30 | 1013.8 |
| 20260506095227 | 74 | 239 | 1.7 | 5.2 | 0.00 | 0.00 | 0.00 | 31 | 1013.8 |
| 20260506094723 | 75 | 290 | 1.7 | 5.2 | 0.00 | 0.00 | 0.00 | 32 | 1013.9 |
| 20260506094222 | 74 | 262 | 1.7 | 4.3 | 0.00 | 0.00 | 0.00 | 31 | 1013.9 |
| 20260506093722 | 73 | 259 | 1.7 | 4.3 | 0.00 | 0.00 | 0.00 | 33 | 1014.0 |
| 20260506093221 | 74 | 285 | 0.9 | 4.3 | 0.00 | 0.00 | 0.00 | 31 | 1014.0 |
| 20260506092723 | 75 | 277 | 0.9 | 4.3 | 0.00 | 0.00 | 0.00 | 30 | 1014.1 |
| 20260506092222 | 75 | 214 | 0.9 | 3.5 | 0.00 | 0.00 | 0.00 | 32 | 1014.1 |
| 20260506091721 | 74 | 338 | 0.9 | 3.5 | 0.00 | 0.00 | 0.00 | 32 | 1014.1 |
| 20260506091223 | 73 | 56 | 0.9 | 3.5 | 0.00 | 0.00 | 0.00 | 34 | 1014.2 |
| 20260506090723 | 73 | 251 | 0.0 | 3.5 | 0.00 | 0.00 | 0.00 | 35 | 1014.2 |
| 20260506090222 | 71 | 270 | 0.9 | 3.5 | 0.00 | 0.00 | 0.00 | 37 | 1014.2 |
| 20260506085723 | 71 | 169 | 1.7 | 5.2 | 0.00 | 0.00 | 0.00 | 35 | 1014.4 |
| 20260506085221 | 71 | 164 | 0.9 | 5.2 | 0.00 | 0.00 | 0.00 | 35 | 1014.5 |
| 20260506084723 | 72 | 183 | 0.9 | 4.3 | 0.00 | 0.00 | 0.00 | 34 | 1014.5 |
| 20260506084223 | 71 | 255 | 1.7 | 5.2 | 0.00 | 0.00 | 0.00 | 35 | 1014.6 |
| 20260506083720 | 71 | 262 | 0.9 | 5.2 | 0.00 | 0.00 | 0.00 | 35 | 1014.6 |
| 20260506082717 | 70 | 248 | 0.9 | 5.2 | 0.00 | 0.00 | 0.00 | 36 | 1014.6 |
| 20260506082214 | 69 | 245 | 0.9 | 3.5 | 0.00 | 0.00 | 0.00 | 35 | 1014.6 |
| 20260506081713 | 69 | 189 | 0.9 | 4.3 | 0.00 | 0.00 | 0.00 | 37 | 1014.6 |
| 20260506081215 | 69 | 228 | 0.9 | 4.3 | 0.00 | 0.00 | 0.00 | 39 | 1014.6 |
| 20260506080711 | 68 | 172 | 0.0 | 2.6 | 0.00 | 0.00 | 0.00 | 39 | 1014.6 |
| 20260506073147 | 65 | 239 | 0.0 | 1.7 | 0.00 | 0.00 | 0.00 | 41 | 1014.7 |
| 20260506072138 | 63 | 239 | 0.9 | 3.5 | 0.00 | 0.00 | 0.00 | 44 | 1014.8 |
| 20260506071634 | 63 | 239 | 0.9 | 3.5 | 0.00 | 0.00 | 0.00 | 44 | 1014.8 |
| 20260506070635 | 63 | 232 | 0.0 | 2.6 | 0.00 | 0.00 | 0.00 | 45 | 1014.9 |
| 20260506070133 | 62 | 124 | 0.0 | 2.6 | 0.00 | 0.00 | 0.00 | 45 | 1015.0 |
| 20260506062128 | 58 | 82 | 0.0 | 1.7 | 0.00 | 0.00 | 0.00 | 52 | 1015.2 |
| 20260506061629 | 58 | 108 | 0.0 | 1.7 | 0.00 | 0.00 | 0.00 | 52 | 1015.2 |
| 20260506061126 | 58 | 109 | 0.0 | 1.7 | 0.00 | 0.00 | 0.00 | 53 | 1015.2 |
| 20260506060127 | 56 | 86 | 0.0 | 1.7 | 0.00 | 0.00 | 0.00 | 55 | 1015.3 |
| 20260506051027 | 52 | 45 | 0.0 | 0.9 | 0.00 | 0.00 | 0.00 | 60 | 1015.3 |
| 20260506050521 | 52 | 46 | 0.0 | 0.9 | 0.00 | 0.00 | 0.00 | 61 | 1015.3 |
| 20260506045004 | 52 | 326 | 0.0 | 0.9 | 0.00 | 0.00 | 0.00 | 62 | 1015.3 |
| 20260506044500 | 51 | 326 | 0.0 | 0.9 | 0.00 | 0.00 | 0.00 | 63 | 1015.3 |
| 20260506043951 | 50 | 326 | 0.0 | 0.9 | 0.00 | 0.00 | 0.00 | 64 | 1015.2 |
| 20260506043446 | 50 | 326 | 0.0 | 0.9 | 0.00 | 0.00 | 0.00 | 64 | 1015.3 |
| 20260506042940 | 51 | 326 | 0.0 | 0.9 | 0.00 | 0.00 | 0.00 | 63 | 1015.2 |
| 20260506042434 | 51 | 326 | 0.0 | 0.0 | 0.00 | 0.00 | 0.00 | 63 | 1015.3 |
| 20260506041927 | 51 | 326 | 0.0 | 0.0 | 0.00 | 0.00 | 0.00 | 65 | 1015.2 |
| 20260506041422 | 49 | 326 | 0.0 | 0.0 | 0.00 | 0.00 | 0.00 | 67 | 1015.2 |
| 20260506040916 | 48 | 326 | 0.0 | 0.9 | 0.00 | 0.00 | 0.00 | 69 | 1015.2 |
| 20260506040409 | 47 | 326 | 0.0 | 0.9 | 0.00 | 0.00 | 0.00 | 70 | 1015.1 |
| 20260506035903 | 46 | 326 | 0.0 | 0.9 | 0.00 | 0.00 | 0.00 | 72 | 1015.1 |
| 20260506035358 | 45 | 326 | 0.0 | 0.9 | 0.00 | 0.00 | 0.00 | 72 | 1015.1 |
| 20260506034851 | 45 | 326 | 0.0 | 0.9 | 0.00 | 0.00 | 0.00 | 72 | 1015.0 |
| 20260506034345 | 45 | 326 | 0.0 | 0.9 | 0.00 | 0.00 | 0.00 | 73 | 1015.0 |
| 20260506033839 | 44 | 326 | 0.0 | 0.9 | 0.00 | 0.00 | 0.00 | 74 | 1014.9 |
| 20260506032828 | 44 | 326 | 0.0 | 0.9 | 0.00 | 0.00 | 0.00 | 75 | 1014.9 |
| 20260506032322 | 44 | 326 | 0.0 | 0.0 | 0.00 | 0.00 | 0.00 | 75 | 1014.9 |
| 20260506031816 | 44 | 326 | 0.0 | 0.0 | 0.00 | 0.00 | 0.00 | 75 | 1014.8 |
| 20260506031309 | 44 | 326 | 0.0 | 0.0 | 0.00 | 0.00 | 0.00 | 74 | 1014.7 |
| 20260506030816 | 45 | 326 | 0.0 | 0.0 | 0.00 | 0.00 | 0.00 | 74 | 1014.7 |
| 20260506030258 | 45 | 326 | 0.0 | 0.0 | 0.00 | 0.00 | 0.00 | 73 | 1014.6 |
| 20260506025751 | 45 | 326 | 0.0 | 0.0 | 0.00 | 0.00 | 0.00 | 73 | 1014.6 |
| 20260506024739 | 45 | 326 | 0.0 | 0.9 | 0.00 | 0.00 | 0.00 | 73 | 1014.6 |
| 20260506024234 | 46 | 326 | 0.0 | 0.0 | 0.00 | 0.00 | 0.00 | 72 | 1014.5 |
| 20260506023727 | 46 | 326 | 0.0 | 0.0 | 0.00 | 0.00 | 0.00 | 72 | 1014.4 |
| 20260506023221 | 46 | 326 | 0.0 | 0.9 | 0.00 | 0.00 | 0.00 | 72 | 1014.4 |
| 20260506022715 | 46 | 326 | 0.0 | 0.9 | 0.00 | 0.00 | 0.00 | 73 | 1014.4 |
| 20260506021705 | 46 | 314 | 0.0 | 0.9 | 0.00 | 0.00 | 0.00 | 72 | 1014.4 |
| 20260506021157 | 46 | 314 | 0.0 | 0.9 | 0.00 | 0.00 | 0.00 | 72 | 1014.2 |
| 20260506020651 | 46 | 314 | 0.0 | 0.9 | 0.00 | 0.00 | 0.00 | 71 | 1014.2 |
| 20260506020145 | 46 | 314 | 0.0 | 0.9 | 0.00 | 0.00 | 0.00 | 70 | 1014.2 |
| 20260506015640 | 46 | 314 | 0.0 | 0.9 | 0.00 | 0.00 | 0.00 | 71 | 1014.4 |
| 20260506015134 | 47 | 311 | 0.0 | 0.9 | 0.00 | 0.00 | 0.00 | 71 | 1014.2 |
| 20260506014627 | 47 | 311 | 0.0 | 0.0 | 0.00 | 0.00 | 0.00 | 71 | 1014.4 |
| 20260506014121 | 47 | 312 | 0.0 | 0.9 | 0.00 | 0.00 | 0.00 | 71 | 1014.2 |
| 20260506013615 | 47 | 312 | 0.0 | 0.9 | 0.00 | 0.00 | 0.00 | 70 | 1014.2 |
| 20260506013112 | 47 | 312 | 0.0 | 0.0 | 0.00 | 0.00 | 0.00 | 69 | 1014.1 |
| 20260506012612 | 48 | 311 | 0.0 | 0.9 | 0.00 | 0.00 | 0.00 | 68 | 1014.1 |
| 20260506012109 | 48 | 311 | 0.0 | 0.9 | 0.00 | 0.00 | 0.00 | 68 | 1014.0 |
| 20260506011611 | 49 | 328 | 0.0 | 0.9 | 0.00 | 0.00 | 0.00 | 68 | 1014.1 |
| 20260506011122 | 49 | 329 | 0.0 | 0.9 | 0.00 | 0.00 | 0.00 | 67 | 1014.1 |
| 20260506010608 | 49 | 328 | 0.0 | 0.9 | 0.00 | 0.00 | 0.00 | 67 | 1014.0 |
| 20260506010108 | 49 | 328 | 0.0 | 0.9 | 0.00 | 0.00 | 0.00 | 67 | 1014.0 |
| 20260506005103 | 49 | 329 | 0.0 | 0.9 | 0.00 | 0.00 | 0.00 | 67 | 1014.0 |
| 20260506004602 | 49 | 328 | 0.0 | 0.9 | 0.00 | 0.00 | 0.00 | 67 | 1013.9 |
| 20260506004103 | 49 | 329 | 0.0 | 0.0 | 0.00 | 0.00 | 0.00 | 66 | 1013.9 |
| 20260506003602 | 50 | 328 | 0.0 | 0.0 | 0.00 | 0.00 | 0.00 | 66 | 1013.9 |
| 20260506003100 | 50 | 329 | 0.0 | 0.0 | 0.00 | 0.00 | 0.00 | 65 | 1013.8 |
| 20260506002601 | 50 | 329 | 0.0 | 0.0 | 0.00 | 0.00 | 0.00 | 65 | 1013.8 |
| 20260506002100 | 50 | 328 | 0.0 | 0.9 | 0.00 | 0.00 | 0.00 | 65 | 1013.7 |
| 20260506001602 | 50 | 329 | 0.0 | 0.9 | 0.00 | 0.00 | 0.00 | 65 | 1013.8 |
| 20260506001056 | 50 | 328 | 0.0 | 0.9 | 0.00 | 0.00 | 0.00 | 65 | 1013.8 |
| 20260506000550 | 50 | 333 | 0.0 | 0.9 | 0.00 | 0.00 | 0.00 | 65 | 1013.9 |
| 20260506000059 | 51 | 321 | 0.0 | 0.9 | 0.00 | 0.00 | 0.00 | 64 | 1013.8 |
| 20260505235548 | 51 | 326 | 0.0 | 0.9 | 0.00 | 0.00 | 0.00 | 64 | 1013.8 |
| 20260505235048 | 50 | 326 | 0.0 | 0.9 | 0.00 | 0.00 | 0.00 | 64 | 1013.8 |
| 20260505234548 | 50 | 326 | 0.0 | 0.9 | 0.00 | 0.00 | 0.00 | 64 | 1013.8 |
| 20260505234048 | 50 | 327 | 0.0 | 0.9 | 0.00 | 0.00 | 0.00 | 64 | 1013.9 |
| 20260505233546 | 50 | 326 | 0.0 | 0.9 | 0.00 | 0.00 | 0.00 | 63 | 1013.9 |
| 20260505233044 | 50 | 352 | 0.0 | 0.9 | 0.00 | 0.00 | 0.00 | 62 | 1013.9 |
| 20260505232544 | 50 | 354 | 0.0 | 0.9 | 0.00 | 0.00 | 0.00 | 63 | 1013.8 |
| 20260505231542 | 50 | 354 | 0.0 | 0.9 | 0.00 | 0.00 | 0.00 | 62 | 1013.9 |
| 20260505231041 | 50 | 354 | 0.0 | 0.9 | 0.00 | 0.00 | 0.00 | 62 | 1013.9 |
| 20260505230537 | 50 | 29 | 0.0 | 0.9 | 0.00 | 0.00 | 0.00 | 62 | 1014.0 |
| 20260505230035 | 51 | 32 | 0.0 | 0.9 | 0.00 | 0.00 | 0.00 | 62 | 1014.0 |
| 20260505225537 | 51 | 299 | 0.0 | 0.9 | 0.00 | 0.00 | 0.00 | 62 | 1014.0 |
| 20260505225035 | 51 | 298 | 0.0 | 0.9 | 0.00 | 0.00 | 0.00 | 62 | 1014.0 |
| 20260505224532 | 52 | 298 | 0.0 | 0.9 | 0.00 | 0.00 | 0.00 | 61 | 1014.0 |
| 20260505223533 | 52 | 321 | 0.0 | 0.9 | 0.00 | 0.00 | 0.00 | 60 | 1014.0 |
| 20260505223031 | 53 | 295 | 0.0 | 0.9 | 0.00 | 0.00 | 0.00 | 59 | 1014.0 |
| 20260505222529 | 53 | 295 | 0.0 | 0.9 | 0.00 | 0.00 | 0.00 | 59 | 1014.0 |
| 20260505222028 | 53 | 295 | 0.0 | 0.9 | 0.00 | 0.00 | 0.00 | 58 | 1013.9 |
| 20260505221528 | 53 | 295 | 0.0 | 0.9 | 0.00 | 0.00 | 0.00 | 59 | 1013.9 |
| 20260505221027 | 53 | 294 | 0.0 | 0.0 | 0.00 | 0.00 | 0.00 | 59 | 1013.9 |
| 20260505220530 | 53 | 295 | 0.0 | 0.9 | 0.00 | 0.00 | 0.00 | 58 | 1014.0 |
| 20260505220035 | 54 | 298 | 0.0 | 0.9 | 0.00 | 0.00 | 0.00 | 58 | 1014.0 |
| 20260505215523 | 54 | 274 | 0.0 | 0.9 | 0.00 | 0.00 | 0.00 | 57 | 1013.9 |
| 20260505215016 | 54 | 321 | 0.0 | 1.7 | 0.00 | 0.00 | 0.00 | 57 | 1014.0 |
| 20260505214510 | 54 | 321 | 0.0 | 1.7 | 0.00 | 0.00 | 0.00 | 57 | 1013.9 |
| 20260505213458 | 55 | 323 | 0.9 | 3.5 | 0.00 | 0.00 | 0.00 | 56 | 1013.9 |
| 20260505212952 | 55 | 328 | 0.9 | 2.6 | 0.00 | 0.00 | 0.00 | 55 | 1013.9 |
| 20260505212446 | 56 | 327 | 0.0 | 3.5 | 0.00 | 0.00 | 0.00 | 54 | 1013.8 |
| 20260505211940 | 56 | 271 | 0.0 | 3.5 | 0.00 | 0.00 | 0.00 | 53 | 1013.8 |
| 20260505210929 | 57 | 297 | 0.0 | 0.9 | 0.00 | 0.00 | 0.00 | 51 | 1013.8 |
| 20260505210423 | 58 | 297 | 0.0 | 0.9 | 0.00 | 0.00 | 0.00 | 50 | 1013.8 |
| 20260505205917 | 58 | 290 | 0.9 | 4.3 | 0.00 | 0.00 | 0.00 | 49 | 1013.9 |
| 20260505204401 | 60 | 294 | 0.0 | 0.9 | 0.00 | 0.00 | 0.00 | 41 | 1013.7 |
| 20260505203856 | 60 | 277 | 0.0 | 1.7 | 0.00 | 0.00 | 0.00 | 41 | 1013.8 |
| 20260505202335 | 61 | 297 | 0.0 | 2.6 | 0.00 | 0.00 | 0.00 | 41 | 1013.7 |
| 20260505201828 | 61 | 304 | 0.0 | 2.6 | 0.00 | 0.00 | 0.00 | 41 | 1013.6 |
| 20260505201322 | 61 | 274 | 0.0 | 0.9 | 0.00 | 0.00 | 0.00 | 40 | 1013.6 |
| 20260505200311 | 62 | 264 | 0.0 | 0.9 | 0.00 | 0.00 | 0.00 | 40 | 1013.5 |
| 20260505195804 | 62 | 284 | 0.0 | 0.9 | 0.00 | 0.00 | 0.00 | 40 | 1013.5 |
| 20260505195259 | 62 | 308 | 0.0 | 0.9 | 0.00 | 0.00 | 0.00 | 40 | 1013.4 |
| 20260505194752 | 63 | 288 | 0.0 | 0.9 | 0.00 | 0.00 | 0.00 | 38 | 1013.4 |
| 20260505194245 | 63 | 304 | 0.0 | 0.9 | 0.00 | 0.00 | 0.00 | 38 | 1013.4 |
| 20260505193233 | 63 | 298 | 0.9 | 3.5 | 0.00 | 0.00 | 0.00 | 38 | 1013.3 |
| 20260505192726 | 63 | 264 | 0.9 | 3.5 | 0.00 | 0.00 | 0.00 | 39 | 1013.3 |
| 20260505192220 | 63 | 264 | 0.9 | 3.5 | 0.00 | 0.00 | 0.00 | 40 | 1013.2 |
| 20260505191715 | 63 | 264 | 0.0 | 3.5 | 0.00 | 0.00 | 0.00 | 40 | 1013.2 |
| 20260505191209 | 63 | 264 | 0.0 | 0.9 | 0.00 | 0.00 | 0.00 | 40 | 1013.1 |
| 20260505190703 | 63 | 291 | 0.0 | 0.9 | 0.00 | 0.00 | 0.00 | 40 | 1013.0 |
| 20260505190156 | 63 | 316 | 0.0 | 0.9 | 0.00 | 0.00 | 0.00 | 40 | 1012.9 |
| 20260505185650 | 64 | 264 | 0.0 | 0.9 | 0.00 | 0.00 | 0.00 | 39 | 1012.9 |
| 20260505185144 | 64 | 297 | 0.0 | 1.7 | 0.00 | 0.00 | 0.00 | 39 | 1012.8 |
| 20260505184639 | 64 | 302 | 0.9 | 6.1 | 0.00 | 0.00 | 0.00 | 39 | 1012.8 |
| 20260505184133 | 64 | 324 | 1.7 | 6.1 | 0.00 | 0.00 | 0.00 | 39 | 1012.7 |
| 20260505183627 | 65 | 313 | 2.6 | 8.7 | 0.00 | 0.00 | 0.00 | 39 | 1012.6 |
| 20260505182108 | 65 | 351 | 2.6 | 7.8 | 0.00 | 0.00 | 0.00 | 38 | 1012.4 |
| 20260505181602 | 65 | 321 | 2.6 | 9.6 | 0.00 | 0.00 | 0.00 | 38 | 1012.4 |
| 20260505180550 | 66 | 349 | 3.5 | 7.8 | 0.00 | 0.00 | 0.00 | 37 | 1012.4 |
| 20260505175538 | 67 | 7 | 2.6 | 7.8 | 0.00 | 0.00 | 0.00 | 37 | 1012.2 |
| 20260505175032 | 67 | 330 | 2.6 | 7.0 | 0.00 | 0.00 | 0.00 | 36 | 1012.2 |
| 20260505174528 | 67 | 11 | 2.6 | 7.8 | 0.00 | 0.00 | 0.00 | 36 | 1012.2 |
| 20260505174022 | 68 | 323 | 2.6 | 8.7 | 0.00 | 0.00 | 0.00 | 36 | 1012.2 |
| 20260505173008 | 69 | 354 | 3.5 | 7.0 | 0.00 | 0.00 | 0.00 | 36 | 1012.1 |
| 20260505172502 | 69 | 326 | 2.6 | 7.0 | 0.00 | 0.00 | 0.00 | 36 | 1012.1 |
| 20260505171450 | 69 | 1 | 0.9 | 5.2 | 0.00 | 0.00 | 0.00 | 36 | 1011.9 |
| 20260505170944 | 70 | 311 | 0.9 | 4.3 | 0.00 | 0.00 | 0.00 | 37 | 1011.9 |
| 20260505170438 | 70 | 336 | 0.9 | 4.3 | 0.00 | 0.00 | 0.00 | 36 | 1011.9 |
| 20260505165932 | 71 | 344 | 0.0 | 2.6 | 0.00 | 0.00 | 0.00 | 36 | 1011.8 |
| 20260505164920 | 72 | 341 | 0.0 | 2.6 | 0.00 | 0.00 | 0.00 | 35 | 1011.8 |
| 20260505164414 | 72 | 324 | 0.0 | 2.6 | 0.00 | 0.00 | 0.00 | 34 | 1011.8 |
| 20260505163908 | 73 | 330 | 0.0 | 1.7 | 0.00 | 0.00 | 0.00 | 33 | 1011.8 |
| 20260505163402 | 73 | 340 | 0.0 | 0.9 | 0.00 | 0.00 | 0.00 | 32 | 1011.8 |
| 20260505162902 | 73 | 340 | 0.0 | 1.7 | 0.00 | 0.00 | 0.00 | 32 | 1011.8 |
| 20260505162358 | 74 | 338 | 0.9 | 2.6 | 0.00 | 0.00 | 0.00 | 31 | 1011.8 |
| 20260505161901 | 74 | 323 | 0.9 | 3.5 | 0.00 | 0.00 | 0.00 | 30 | 1011.8 |
| 20260505161358 | 75 | 343 | 0.9 | 3.5 | 0.00 | 0.00 | 0.00 | 28 | 1011.8 |
| 20260505160356 | 76 | 317 | 0.9 | 4.3 | 0.00 | 0.00 | 0.00 | 28 | 1011.9 |
| 20260505153350 | 77 | 325 | 0.0 | 1.7 | 0.00 | 0.00 | 0.00 | 22 | 1012.1 |
| 20260505152337 | 77 | 344 | 0.9 | 3.5 | 0.00 | 0.00 | 0.00 | 22 | 1012.1 |
| 20260505151831 | 77 | 22 | 0.9 | 2.6 | 0.00 | 0.00 | 0.00 | 22 | 1012.0 |
| 20260505151325 | 77 | 22 | 1.7 | 5.2 | 0.00 | 0.00 | 0.00 | 21 | 1012.1 |
| 20260505150822 | 77 | 99 | 1.7 | 5.2 | 0.00 | 0.00 | 0.00 | 22 | 1012.1 |
| 20260505150313 | 78 | 34 | 1.7 | 5.2 | 0.00 | 0.00 | 0.00 | 20 | 1012.2 |
| 20260505140209 | 79 | 27 | 1.7 | 6.1 | 0.00 | 0.00 | 0.00 | 22 | 1012.6 |
| 20260505130218 | 78 | 266 | 2.6 | 6.1 | 0.00 | 0.00 | 0.00 | 22 | 1013.4 |
| 20260505124709 | 77 | 103 | 1.7 | 7.0 | 0.00 | 0.00 | 0.00 | 23 | 1013.5 |
| 20260505124202 | 78 | 231 | 2.6 | 8.7 | 0.00 | 0.00 | 0.00 | 24 | 1013.6 |
| 20260505123656 | 78 | 285 | 1.7 | 8.7 | 0.00 | 0.00 | 0.00 | 24 | 1013.7 |
| 20260505122647 | 78 | 290 | 0.9 | 4.3 | 0.00 | 0.00 | 0.00 | 24 | 1013.7 |
| 20260505122149 | 78 | 290 | 1.7 | 7.8 | 0.00 | 0.00 | 0.00 | 23 | 1013.7 |
| 20260505121649 | 77 | 255 | 1.7 | 7.8 | 0.00 | 0.00 | 0.00 | 24 | 1013.8 |
| 20260505121149 | 76 | 293 | 2.6 | 7.0 | 0.00 | 0.00 | 0.00 | 22 | 1013.8 |
| 20260505120648 | 76 | 291 | 2.6 | 7.0 | 0.00 | 0.00 | 0.00 | 22 | 1013.9 |
| 20260505115649 | 76 | 149 | 1.7 | 5.2 | 0.00 | 0.00 | 0.00 | 24 | 1013.9 |
| 20260505115149 | 77 | 250 | 1.7 | 5.2 | 0.00 | 0.00 | 0.00 | 23 | 1013.9 |
| 20260505114647 | 77 | 294 | 1.7 | 5.2 | 0.00 | 0.00 | 0.00 | 24 | 1014.0 |
| 20260505114145 | 76 | 262 | 1.7 | 5.2 | 0.00 | 0.00 | 0.00 | 24 | 1014.1 |
| 20260505113644 | 76 | 197 | 2.6 | 6.1 | 0.00 | 0.00 | 0.00 | 24 | 1014.1 |